Wind_Speed
23 22 22 21 20 20 20 19 19 18 17 16 14 13 12 11 9 8 7 6 5 4 4 3 3 3 3 3 3 3 3 3 4 4 5 6 6 7 7 8 8 9 10
25 24 23 23 22 21 21 20 20 20 19 18 17 15 14 13 12 10 9 8 7 6 5 5 4 4 4 4 4 4 5 5 5 6 6 7 7 8 8 9 10 11 11
27 26 25 24 24 24 23 22 21 21 20 20 19 18 16 15 14 13 11 10 9 8 7 7 6 6 6 6 6 6 6 7 7 7 8 8 9 9 10 10 11 12 13
30 29 28 27 26 25 25 24 24 23 22 22 21 20 18 17 16 15 13 13 12 11 10 9 8 8 8 7 8 8 8 9 9 9 10 10 10 11 11 12 13 13 14
32 31 30 30 29 28 26 26 26 25 24 24 23 22 21 19 18 17 16 15 14 13 12 11 11 10 10 9 9 10 10 10 11 11 11 12 12 12 13 14 14 15 16
34 34 33 32 31 30 29 28 27 27 26 25 25 24 23 22 20 19 18 17 16 15 14 14 13 12 12 12 11 11 11 12 12 12 13 13 14 14 15 16 16 17 18
36 36 35 34 33 32 31 30 29 28 28 27 27 26 25 24 23 21 20 20 19 18 17 16 16 15 14 14 13 13 13 14 14 14 15 15 16 16 17 17 18 19 20
38 37 36 35 34 33 33 32 31 30 30 29 29 28 28 27 26 24 23 22 21 20 19 19 18 17 17 16 16 16 16 16 16 16 17 17 18 18 19 19 20 20 21
41 39 38 38 36 35 35 34 33 31 31 31 30 30 30 29 28 27 26 24 23 23 22 21 20 19 19 19 18 18 18 18 18 19 19 19 20 20 21 21 21 22 22
43 41 40 40 39 38 36 36 35 34 33 33 32 31 30 30 30 29 28 27 26 25 24 23 22 22 21 21 20 20 20 20 20 21 21 21 22 22 23 23 23 24 24
45 44 43 42 41 40 39 38 37 36 35 34 34 34 33 32 31 31 30 29 28 27 26 25 24 24 23 23 23 22 22 22 23 23 23 24 24 24 24 25 25 26 26
46 46 45 43 42 42 41 40 39 38 37 36 35 35 35 34 34 32 32 31 30 29 28 27 26 26 26 25 25 25 25 25 25 25 26 26 26 26 26 27 27 27 28
48 47 47 46 44 43 43 42 41 40 39 38 37 37 37 36 35 34 33 32 32 31 30 29 29 28 28 28 27 27 27 26 26 27 27 27 27 28 28 28 29 29 29
49 49 49 48 47 46 45 44 43 41 41 40 39 39 38 37 37 35 35 34 33 33 32 31 31 30 30 29 29 29 28 28 28 28 28 29 29 29 30 30 30 30 31
49 50 49 49 49 47 47 46 45 42 41 41 40 40 39 39 38 38 37 36 35 34 34 33 33 32 31 31 31 31 31 30 30 31 31 31 31 31 31 31 32 33 33
49 49 49 50 50 49 48 48 46 45 43 42 42 42 41 40 39 38 39 37 36 35 35 35 35 34 33 33 32 33 33 32 32 32 32 32 32 33 33 34 34 35 35
49 49 50 50 50 50 49 49 48 47 46 44 43 44 43 41 40 40 39 39 38 37 36 36 36 36 35 35 35 34 34 34 34 33 33 34 34 34 35 35 36 37 37
49 49 49 50 51 51 50 49 48 47 48 47 46 45 44 43 42 41 40 39 39 38 38 38 37 37 37 37 37 36 36 36 35 35 34 35 36 37 37 38 38 39 39
48 49 50 51 52 52 51 50 50 49 49 48 48 46 46 45 44 43 43 41 41 40 39 39 39 39 38 38 38 38 38 37 37 37 37 37 37 38 39 40 40 40 41
46 48 50 51 50 50 51 51 50 50 50 49 48 47 46 46 44 44 44 43 42 42 41 41 41 40 40 40 40 40 39 39 38 39 39 39 40 40 41 42 43 43 44
42 44 47 49 49 49 49 50 50 50 50 49 48 47 46 45 44 45 45 43 43 43 42 42 42 42 42 42 42 42 41 41 41 41 42 42 42 43 44 44 44 45 45
37 40 42 44 46 47 47 48 48 49 49 49 49 49 48 47 46 44 44 44 44 43 43 43 43 43 43 43 43 43 43 43 42 42 43 44 45 46 46 45 45 45 46
34 34 35 37 41 43 45 46 47 48 49 48 47 47 47 47 47 46 44 43 43 44 44 44 44 44 44 44 44 45 45 44 44 44 46 46 46 46 46 46 46 47 48
32 32 32 34 35 38 40 42 44 45 45 46 46 46 47 47 47 46 46 45 43 43 43 43 44 45 45 45 45 45 46 46 46 46 46 46 46 46 46 46 47 48 49
29 29 30 32 32 33 35 38 40 42 43 43 43 43 44 44 45 46 46 45 45 45 44 44 44 45 45 46 46 46 46 46 47 47 46 45 46 46 47 47 48 49 50
26 26 27 28 29 30 31 32 34 37 39 40 40 40 41 41 41 43 43 44 45 45 45 45 45 46 47 47 47 46 45 46 47 47 46 46 46 46 48 49 49 49 49
Wind_Direction
246 246 247 248 248 249 250 250 251 252 253 254 255 255 255 255 254 255 255 256 260 262 265 273 275 272 279 273 270 276 278 284 295 299 303 306 306 309 312 314 318 321 325
247 247 247 248 248 249 250 251 251 252 253 254 254 255 255 255 255 256 256 256 258 259 261 266 271 268 271 271 267 270 274 278 284 288 293 297 299 301 305 307 310 314 318
248 248 248 248 249 250 251 252 253 253 253 254 254 254 255 254 254 255 256 256 257 259 259 262 267 267 267 269 269 268 270 274 277 282 286 291 294 297 300 303 305 309 312
247 249 249 249 250 250 251 252 252 253 253 253 254 254 254 254 254 255 255 256 256 258 259 260 262 264 264 266 268 269 271 274 276 279 283 286 289 293 295 298 301 304 307
247 248 250 250 250 251 252 252 252 252 253 253 253 254 254 254 255 255 255 256 256 257 259 260 261 262 263 264 267 268 270 273 275 278 280 283 286 289 292 294 297 300 303
245 246 248 250 251 251 251 251 251 251 252 252 252 253 253 253 254 255 256 256 256 257 259 260 261 262 263 263 265 267 268 271 274 276 278 280 282 284 288 291 294 297 300
245 245 246 247 249 250 250 250 250 251 251 251 251 252 252 251 252 254 255 256 256 257 258 260 262 263 263 264 265 266 267 269 272 273 275 278 280 282 285 288 292 295 297
244 244 244 245 247 248 250 250 249 250 251 251 251 251 252 252 252 253 254 256 256 256 257 259 261 263 264 265 266 267 267 269 271 273 275 277 279 281 283 287 290 292 294
244 244 244 244 246 247 249 250 250 250 250 250 251 251 251 251 251 252 253 254 256 257 257 258 260 262 264 266 267 267 268 269 271 272 274 276 279 280 282 285 288 290 292
244 244 243 244 244 246 247 248 249 249 250 250 250 251 251 251 251 251 253 253 255 256 256 257 259 261 263 265 266 268 268 269 270 272 273 275 277 279 282 284 286 288 290
243 244 243 243 244 245 245 247 247 248 249 250 250 250 251 252 252 252 252 252 254 255 256 256 257 260 262 263 265 267 268 269 270 272 273 275 276 278 280 283 285 287 289
242 243 243 243 244 244 245 246 246 247 248 250 250 249 249 250 251 252 252 251 252 254 255 257 258 259 261 263 264 266 268 269 270 272 273 274 275 277 279 282 284 286 287
242 242 242 242 243 244 244 245 246 247 248 250 250 249 249 249 250 250 251 251 251 253 255 256 257 259 261 263 264 266 268 270 270 271 273 275 275 277 279 281 283 285 286
241 242 242 242 242 242 244 244 245 246 247 248 248 248 248 249 249 249 250 250 251 251 254 257 258 259 261 262 264 265 267 270 271 272 273 275 276 277 278 281 282 284 285
240 241 241 241 242 242 243 243 244 246 247 247 247 247 248 249 249 249 250 250 251 251 253 256 259 259 260 262 263 265 268 270 271 272 273 275 276 277 279 280 282 283 284
240 240 239 241 242 242 242 242 243 245 246 246 246 246 247 248 248 248 248 249 251 253 254 256 258 260 261 263 265 266 268 269 270 272 273 275 276 277 278 280 282 282 283
239 239 240 240 240 240 240 241 243 244 245 246 246 246 247 247 247 248 249 249 250 252 253 255 258 261 263 264 265 266 268 269 270 272 273 275 276 277 279 281 282 282 283
240 240 239 238 239 239 239 241 242 243 245 245 245 245 245 246 247 248 249 249 249 251 253 255 258 260 262 264 265 266 267 269 270 272 273 276 277 278 279 280 281 282 283
240 240 238 238 238 239 240 241 241 242 243 243 243 242 243 246 247 248 248 249 250 251 254 255 257 260 262 265 266 266 267 269 270 271 274 276 278 279 280 280 280 281 282
241 240 239 238 238 239 239 241 241 242 241 241 241 241 243 246 247 247 248 249 251 252 254 255 257 261 263 265 266 267 268 269 271 272 275 277 278 279 280 280 280 281 281
240 239 238 237 238 239 240 240 241 242 242 240 240 241 243 244 246 247 247 249 251 253 254 256 258 261 264 265 265 267 268 270 273 274 276 277 278 279 280 280 280 280 280
240 238 237 237 237 238 239 238 239 240 240 240 241 241 242 244 245 247 248 249 251 253 254 255 257 260 263 266 267 269 270 270 272 274 276 277 278 280 279 279 280 280 281
237 235 237 238 237 238 239 238 239 239 239 240 240 241 242 244 245 246 248 248 250 253 255 256 259 260 263 266 268 270 271 273 273 274 276 277 278 278 278 278 279 280 281
235 237 238 237 237 239 239 238 238 239 239 240 242 243 243 243 245 246 247 248 251 252 254 257 259 262 264 266 269 271 273 275 277 276 276 277 277 277 278 279 280 281 282
236 238 239 236 237 239 239 239 238 238 238 239 242 243 243 244 246 247 248 249 251 252 254 257 261 263 265 267 269 272 274 275 276 277 278 278 277 277 278 279 280 281 283
236 237 237 235 236 236 237 236 237 237 238 239 240 242 244 246 248 249 249 251 253 253 255 258 261 264 265 267 269 271 273 275 277 278 278 278 277 277 278 279 280 281 281
Height
5864 5866 5867 5869 5870 5872 5873 5874 5875 5876 5877 5877 5878 5879 5879 5879 5879 5879 5879 5879 5878 5878 5878 5878 5878 5878 5877 5877 5877 5877 5877 5877 5876 5876 5876 5875 5875 5874 5873 5873 5872 5871 5870
5860 5862 5864 5865 5867 5868 5870 5871 5872 5873 5874 5875 5876 5876 5877 5877 5877 5878 5878 5877 5877 5877 5877 5877 5877 5876 5876 5876 5876 5876 5876 5876 5875 5875 5875 5874 5874 5873 5872 5872 5871 5870 5869
5856 5858 5860 5861 5863 5865 5866 5868 5869 5870 5871 5872 5873 5874 5875 5875 5875 5876 5876 5876 5876 5876 5876 5876 5875 5875 5875 5875 5875 5875 5874 5874 5874 5874 5873 5873 5872 5872 5871 5870 5869 5868 5867
5852 5853 5855 5857 5859 5861 5862 5864 5865 5867 5868 5869 5870 5871 5872 5873 5873 5873 5874 5874 5874 5874 5874 5874 5874 5874 5873 5873 5873 5873 5873 5873 5872 5872 5872 5871 5871 5870 5869 5868 5867 5866 5865
5847 5848 5851 5853 5855 5856 5858 5860 5861 5863 5864 5865 5867 5868 5869 5870 5870 5871 5871 5871 5872 5872 5872 5872 5872 5872 5872 5871 5871 5871 5871 5871 5870 5870 5870 5869 5869 5868 5867 5866 5865 5864 5863
5841 5843 5845 5847 5849 5851 5853 5855 5857 5858 5860 5861 5863 5864 5865 5866 5867 5868 5868 5869 5869 5869 5869 5870 5870 5869 5869 5869 5869 5869 5869 5868 5868 5868 5867 5867 5866 5865 5865 5864 5863 5862 5860
5834 5837 5839 5841 5844 5846 5848 5850 5852 5854 5855 5857 5858 5860 5861 5862 5863 5864 5865 5866 5866 5866 5867 5867 5867 5867 5867 5867 5867 5866 5866 5866 5865 5865 5864 5864 5863 5863 5862 5861 5860 5859 5857
5827 5830 5833 5835 5838 5840 5842 5844 5846 5848 5850 5852 5853 5855 5856 5858 5859 5860 5861 5862 5863 5863 5863 5863 5864 5864 5864 5864 5864 5863 5863 5863 5862 5862 5861 5861 5860 5859 5859 5858 5856 5855 5854
5820 5823 5826 5829 5831 5834 5836 5838 5841 5843 5844 5846 5848 5849 5851 5853 5854 5855 5857 5858 5858 5859 5860 5860 5860 5860 5861 5861 5860 5860 5860 5859 5859 5858 5858 5857 5857 5856 5855 5854 5853 5851 5850
5813 5816 5819 5822 5825 5827 5830 5832 5834 5837 5838 5840 5842 5844 5845 5847 5849 5850 5852 5853 5854 5854 5855 5856 5856 5856 5856 5857 5856 5856 5856 5855 5855 5854 5854 5853 5853 5852 5851 5850 5849 5847 5846
5805 5808 5811 5814 5817 5820 5823 5825 5828 5830 5832 5834 5836 5838 5840 5841 5843 5844 5846 5847 5849 5849 5850 5851 5851 5852 5852 5852 5852 5852 5852 5851 5851 5850 5850 5849 5848 5847 5846 5845 5844 5843 5841
5796 5799 5803 5806 5810 5812 5815 5818 5821 5823 5825 5827 5829 5831 5833 5835 5837 5838 5840 5841 5843 5844 5845 5846 5846 5846 5847 5847 5847 5847 5847 5846 5846 5845 5845 5844 5843 5842 5841 5840 5839 5838 5836
5786 5790 5794 5798 5801 5804 5807 5810 5813 5816 5819 5821 5823 5825 5827 5829 5831 5832 5834 5835 5837 5838 5839 5840 5841 5841 5841 5842 5842 5842 5841 5841 5841 5840 5840 5839 5838 5837 5836 5835 5834 5832 5831
5776 5780 5784 5788 5792 5796 5799 5802 5805 5808 5811 5814 5816 5817 5820 5822 5824 5825 5827 5829 5831 5832 5833 5834 5835 5835 5836 5836 5836 5836 5836 5835 5835 5835 5834 5833 5832 5832 5830 5829 5828 5827 5825
5766 5770 5774 5779 5783 5787 5790 5793 5797 5801 5803 5806 5808 5810 5812 5814 5817 5819 5821 5822 5824 5825 5827 5828 5829 5829 5829 5830 5830 5830 5830 5829 5829 5828 5828 5827 5826 5825 5824 5823 5822 5820 5819
5756 5760 5764 5769 5773 5777 5781 5785 5789 5792 5795 5798 5800 5802 5805 5807 5809 5811 5813 5815 5817 5819 5820 5821 5822 5823 5823 5824 5824 5823 5823 5823 5822 5822 5821 5821 5820 5819 5818 5817 5815 5813 5812
5745 5750 5754 5758 5763 5767 5772 5776 5780 5783 5786 5789 5792 5794 5797 5799 5802 5804 5806 5808 5810 5811 5813 5814 5815 5816 5817 5817 5817 5817 5816 5816 5815 5815 5814 5814 5813 5812 5811 5809 5808 5806 5805
5735 5740 5744 5748 5752 5757 5762 5766 5770 5774 5777 5780 5783 5786 5789 5791 5793 5796 5798 5800 5802 5804 5805 5807 5808 5809 5809 5809 5810 5809 5809 5809 5808 5808 5807 5806 5805 5804 5803 5802 5800 5798 5796
5724 5729 5733 5738 5742 5747 5751 5755 5759 5764 5767 5770 5774 5777 5780 5783 5785 5787 5790 5792 5794 5796 5798 5799 5800 5801 5802 5802 5802 5802 5801 5801 5801 5800 5799 5798 5797 5796 5794 5793 5791 5789 5787
5714 5719 5723 5727 5732 5736 5741 5745 5749 5753 5757 5761 5764 5768 5771 5774 5776 5779 5781 5784 5786 5788 5790 5791 5792 5793 5793 5793 5793 5793 5793 5793 5792 5792 5791 5790 5788 5786 5784 5783 5781 5779 5777
5704 5708 5713 5717 5722 5726 5730 5735 5739 5743 5747 5751 5755 5759 5762 5765 5767 5770 5773 5775 5777 5779 5781 5783 5784 5784 5784 5784 5785 5785 5785 5785 5784 5783 5782 5780 5778 5776 5774 5772 5770 5768 5766
5695 5699 5703 5707 5712 5716 5720 5725 5729 5733 5737 5742 5746 5749 5752 5755 5758 5761 5764 5766 5769 5771 5772 5774 5775 5775 5776 5775 5776 5776 5776 5777 5775 5774 5772 5770 5768 5766 5763 5761 5759 5757 5755
5688 5692 5696 5699 5703 5707 5711 5716 5720 5724 5728 5733 5736 5740 5743 5746 5749 5752 5755 5757 5760 5762 5763 5765 5766 5766 5767 5767 5766 5766 5765 5766 5765 5765 5762 5759 5757 5754 5752 5750 5748 5745 5743
5682 5685 5689 5692 5695 5699 5702 5707 5711 5716 5720 5724 5727 5731 5734 5737 5740 5742 5745 5748 5750 5753 5754 5755 5756 5756 5757 5757 5756 5756 5755 5754 5753 5753 5752 5748 5745 5742 5740 5738 5735 5732 5730
5676 5680 5682 5685 5688 5691 5695 5699 5703 5707 5711 5714 5718 5721 5724 5727 5730 5733 5736 5738 5741 5743 5745 5746 5746 5746 5746 5746 5746 5745 5744 5742 5740 5739 5739 5738 5734 5731 5728 5725 5722 5720 5716
5671 5674 5676 5679 5682 5685 5688 5692 5695 5699 5702 5706 5709 5712 5716 5718 5721 5723 5726 5728 5730 5732 5734 5735 5735 5735 5735 5735 5735 5734 5733 5731 5730 5728 5726 5724 5722 5721 5717 5713 5709 5706 5703